Skip Page Navigation
NASA JPL Caltech
NASA Logo - Jet Propulsion Laboratory + View the NASA Portal
+ Near-Earth Object (NEO) Program
Search JPL
JPL Home Earth Solar System Stars & Galaxies Technology
JPL Solar System Dynamics
BODIES ORBITS EPHEMERIDES TOOLS PHYSICAL DATA DISCOVERY FAQ SITE MAP
JPL Small-Body Database Browser
Search: [ help ]  
19306 Voves (1996 TN12)
Classification: Main-belt Asteroid          SPK-ID: 2019306
Ephemeris | Orbit Diagram | Orbital Elements | Physical Parameters | Discovery Circumstances | Close-Approach Data ]

[ show orbit diagram ]
Orbital Elements at Epoch 2457000.5 (2014-Dec-09.0) TDB
Reference: JPL 4 (heliocentric ecliptic J2000)
 Element Value Uncertainty (1-sigma)   Units 
e .165646666638029 4.8061e-08  
a 2.355654430237 1.2625e-08 AU
q 1.965448126117135 1.1296e-07 AU
i 1.459754675246731 5.457e-06 deg
node 240.8713078124424 0.00023094 deg
peri 230.4969527366624 0.0002319 deg
M 302.7076607845803 1.9449e-05 deg
tp 2457210.664738483009
(2015-Jul-07.16473848)
7.1699e-05 JED
period 1320.583290715422
3.62
1.0616e-05
2.907e-08
d
yr
n .2726068113469549 2.1915e-09 deg/d
Q 2.745860734356864 1.4716e-08 AU
  Orbit Determination Parameters
   # obs. used (total)      797  
   data-arc span      8047 days (22.03 yr)  
   first obs. used      1992-09-22  
   last obs. used      2014-10-04  
   planetary ephem.      DE431  
   SB-pert. ephem.      SB431-BIG16  
   condition code      0  
   fit RMS      .5378  
   data source      ORB  
   producer      Otto Matic  
   solution date      2014-Oct-09 14:39:26  

Additional Information
 Earth MOID = .982412 AU 
 T_jup = 3.536 
[ show covariance matrix ]

Ephemeris | Orbit Diagram | Orbital Elements | Physical Parameters | Discovery Circumstances | Close-Approach Data ]

Physical Parameter Table
Parameter Symbol Value Units Sigma Reference Notes
absolute magnitude H 14.9 mag n/a MPO266057  

19306 Voves           Discovered 1996 Oct. 12 at Santa Lucia Stroncone.
Voves is a French town, located in the Beauce natural region, Eure-et-Loire department. There are examples of megalithic monuments (dolmens), old windmills and modern wind turbines. Voves is twinned with the Italian town of Stroncone.
NOTE: some special characters may not display properly (any characters within {} are an attempt to place the proper accent above a character)
Reference: 20130127/MPCPages.arcLast Updated: 2013-01-31

[ show close-approach data ]
Alternate Designations
 1996 TN12 = 1992 SM18 
Ephemeris | Orbit Diagram | Orbital Elements | Physical Parameters | Discovery Circumstances | Close-Approach Data ]
ABOUT SSD CREDITS/AWARDS PRIVACY/COPYRIGHT GLOSSARY LINKS
FirstGov 2014-Oct-22 00:01 UT
(server date/time)  
NASA Home Page
Site Manager:   Donald K. Yeomans
Webmaster  Alan B. Chamberlin